[[{"header":{"parameterUnit":"m.s-1","parameterCategory":1,"la1":30.2991,"la2":30.254,"lo1":-89.0895,"lo2":-89.0444,"dy":0.0017,"dx":0.0017,"nx":28,"ny":28,"refTime":"2024-12-01T09:00:00:Z","depth":0,"parameterNumber":2,"parameterNumberName":"U-component_of_WINDS"},"data":[0,0,0,0,0,0,0,0,0,0,0,0,0,0,0,0,0,0,0,0,0,0,0,0,0,0,0,0,0,0,0,0,0,0,0,0,0,0,0,0,0,0,0,0,0,0,0,0,0,0,0,0,0,0,0,0,0,0,0.6525,0.6526,0,0.6569,0.6569,0.657,0.6632,0.6633,0.6635,0.6636,0.6678,0.6678,0.6678,0,0,0,0,0,0,0,0,0,0,0,0,0,0.6496,0.6496,0.6525,0.6526,0.6526,0.6568,0.6569,0.657,0.6632,0.6634,0.6635,0.6636,0.6678,0.6678,0.6678,0,0,0,0,0,0,0,0,0,0,0,0,0,0.6521,0.6496,0.6525,0.6563,0.6567,0.6568,0.6569,0.657,0.6632,0.6634,0.6635,0.6637,0.6678,0.6678,0.6678,0.6646,0,0,0.6679,0.6679,0,0,0,0,0,0,0,0,0.6519,0.6522,0.6557,0.656,0.6564,0.6597,0.6574,0.6595,0.6631,0.6607,0.6636,0.6638,0.665,0.6652,0.6657,0.6648,0.665,0.6679,0.6679,0.6679,0.6679,0,0,0,0,0,0,0,0.6518,0.652,0.6542,0.6557,0.6562,0.6577,0.6582,0.6579,0.6618,0.6609,0.6614,0.6618,0.6652,0.6656,0.6658,0.6651,0.6679,0.6679,0.6679,0.6679,0.6619,0.6617,0,0,0,0,0,0,0.651,0.6519,0.6541,0.6544,0.6546,0.6576,0.6582,0.6585,0.6619,0.6626,0.6617,0.6621,0.6655,0.6658,0.666,0.6624,0.6679,0.6679,0.6679,0.662,0.6618,0.6616,0,0,0,0,0,0,0.651,0.6512,0.6539,0.6532,0.6537,0.6575,0.6577,0.6585,0.6589,0.6625,0.6632,0.6614,0.6657,0.666,0.6649,0.6627,0.6679,0.6679,0.6622,0.662,0.6617,0.6553,0,0,0,0,0,0,0.6509,0.6511,0.65,0.6532,0.6537,0.6528,0.6576,0.6584,0.6589,0.6595,0.6624,0.663,0.6658,0.6649,0.665,0.6628,0.668,0.6625,0.6621,0.6618,0.6557,0.6548,0.6541,0,0,0,0,0,0.6507,0.6479,0.6499,0.6501,0.6524,0.6527,0.653,0.6563,0.6587,0.6576,0.6599,0.6629,0.6629,0.6647,0.6649,0.6626,0.6626,0.6622,0.6618,0.6561,0.655,0.6541,0,0,0,0,0,0,0.6443,0.6484,0.6506,0.6488,0.6503,0.6537,0.6524,0.6551,0.6559,0.6565,0.6606,0.6611,0.6596,0.6611,0.663,0.6597,0.6632,0.6629,0.6588,0.6578,0.657,0.6566,0.668,0,0,0,0,0,0.6426,0.6426,0.6462,0.6443,0.6449,0.6485,0.6488,0.6512,0.653,0.6536,0.6559,0.6574,0.6578,0.6579,0.6584,0.656,0.6567,0.6546,0.6538,0.6531,0.6526,0.6514,0.6505,0.6604,0.6604,0.6604,0,0,0.6392,0.6415,0.6412,0.643,0.6445,0.6443,0.649,0.6486,0.6485,0.6536,0.6527,0.6544,0.6564,0.6547,0.654,0.6558,0.6501,0.6526,0.652,0.6519,0.6509,0.65,0.6491,0.6601,0.6602,0.6602,0,0,0.6329,0.6347,0.6332,0.6347,0.6369,0.6393,0.6389,0.642,0.6433,0.6425,0.6464,0.6463,0.6468,0.6481,0.6488,0.6431,0.6459,0.6432,0.6388,0.6376,0.6368,0.6361,0.6339,0.6331,0.6428,0.6427,0.6427,0,0.6284,0.6283,0.6321,0.6315,0.6321,0.6369,0.6354,0.6366,0.6388,0.6391,0.6412,0.642,0.6437,0.6423,0.6409,0.6413,0.641,0.6427,0.6366,0.636,0.6354,0.6334,0.6326,0.6424,0.6424,0.6425,0.6425,0,0.6226,0.6224,0.621,0.6231,0.6236,0.6226,0.6262,0.6262,0.6287,0.6309,0.6301,0.6323,0.6333,0.6332,0.6356,0.6321,0.6332,0.6359,0.6394,0.634,0.6322,0.6315,0.6419,0.642,0.6421,0.6422,0,0,0.6121,0.6164,0.6158,0.6168,0.6197,0.6197,0.6188,0.6199,0.6199,0.6213,0.6206,0.6211,0.6236,0.6244,0.627,0.6259,0.6211,0.6288,0.6289,0.6271,0.6173,0.6151,0.6142,0.6231,0.623,0.6229,0.6171,0,0.6062,0.605,0.6085,0.6064,0.6063,0.6109,0.6101,0.6118,0.6139,0.6141,0.6164,0.6165,0.6199,0.6204,0.6196,0.6219,0.6192,0.6224,0.6224,0.6223,0.6215,0.6132,0.6109,0.6053,0.6164,0.6163,0.6162,0,0.5991,0.6003,0.5982,0.6012,0.6013,0.6006,0.6018,0.602,0.604,0.6056,0.6065,0.6096,0.6089,0.6125,0.6116,0.6137,0.614,0.6151,0.615,0.6149,0.6188,0.6128,0.6037,0.6027,0.6152,0.6152,0.6153,0,0.5915,0.5925,0.5914,0.5922,0.5957,0.5951,0.5965,0.5987,0.5991,0.6003,0.6006,0.6016,0.6021,0.6029,0.6061,0.6084,0.6048,0.6086,0.606,0.6059,0.6048,0.6048,0.5954,0.6053,0.6053,0.6053,0.6053,0,0.5845,0.5829,0.588,0.5873,0.5858,0.5898,0.5882,0.5901,0.592,0.5917,0.5958,0.5954,0.5998,0.5999,0.6024,0.6012,0.6015,0.6027,0.6033,0.6022,0.602,0.6022,0.6026,0.6051,0.6051,0.6052,0.6052,0,0.5756,0.5789,0.578,0.5815,0.5823,0.581,0.584,0.5834,0.5858,0.5854,0.5855,0.5892,0.5896,0.5929,0.594,0.5957,0.5935,0.595,0.5928,0.5932,0.5903,0.5904,0.5805,0.5794,0.5901,0.59,0.59,0,0.5707,0.5697,0.5731,0.5732,0.5745,0.5746,0.5751,0.5791,0.5795,0.5817,0.5809,0.5816,0.5823,0.5826,0.5854,0.5862,0.5876,0.5841,0.5878,0.5866,0.5874,0.5873,0.5872,0.5832,0.5831,0.583,0.5829,0,0.5618,0.5635,0.5641,0.5653,0.5658,0.5669,0.5682,0.5681,0.5725,0.5726,0.5731,0.5736,0.5748,0.5754,0.5767,0.5782,0.5812,0.5818,0.5812,0.5799,0.5786,0.5791,0.5905,0.5819,0.582,0.5821,0.5822,0.5822,0.5547,0.5539,0.5562,0.5567,0.5582,0.5594,0.559,0.5614,0.5619,0.5631,0.5655,0.5655,0.5676,0.5697,0.571,0.571,0.5728,0.572,0.5717,0.5714,0.5707,0.5788,0.5713,0.5713,0.5714,0.5714,0.5714,0,0.5457,0.5475,0.5479,0.5497,0.5501,0.5531,0.5548,0.5549,0.5549,0.5566,0.5573,0.5578,0.5584,0.5613,0.5622,0.5617,0.5631,0.5618,0.5617,0.562,0.5692,0.5695,0.5606,0.5606,0.5606,0.5606,0.5606,0.5606,0.5411,0.54,0.5421,0.5418,0.5435,0.5436,0.5443,0.5454,0.5468,0.5472,0.5477,0.5496,0.5518,0.5529,0.5536,0.5544,0.5545,0.5527,0.5539,0.5605,0.5615,0.5625,0.5628,0.5527,0.5527,0.5468,0.5467,0.5467]},{"header":{"parameterUnit":"m.s-1","parameterCategory":1,"la1":30.2991,"la2":30.254,"lo1":-89.0895,"lo2":-89.0444,"dy":0.0017,"dx":0.0017,"nx":28,"ny":28,"refTime":"2024-12-01T09:00:00:Z","depth":0,"parameterNumber":3,"parameterNumberName":"V-component_of_WINDS"},"data":[0,0,0,0,0,0,0,0,0,0,0,0,0,0,0,0,0,0,0,0,0,0,0,0,0,0,0,0,0,0,0,0,0,0,0,0,0,0,0,0,0,0,0,0,0,0,0,0,0,0,0,0,0,0,0,0,0,0,-0.5265,-0.5265,0,-0.5295,-0.5296,-0.5296,-0.5308,-0.5308,-0.5308,-0.5308,-0.534,-0.5341,-0.5342,0,0,0,0,0,0,0,0,0,0,0,0,0,-0.5217,-0.5218,-0.5264,-0.5265,-0.5265,-0.5295,-0.5296,-0.5296,-0.5308,-0.5308,-0.5308,-0.5308,-0.5339,-0.5341,-0.5342,0,0,0,0,0,0,0,0,0,0,0,0,0,-0.5242,-0.5218,-0.5264,-0.5275,-0.5276,-0.5295,-0.5296,-0.5296,-0.5308,-0.5308,-0.5308,-0.5308,-0.5339,-0.534,-0.5342,-0.5352,0,0,-0.5346,-0.5347,0,0,0,0,0,0,0,0,-0.5241,-0.5244,-0.5273,-0.5274,-0.5276,-0.5298,-0.5291,-0.5315,-0.5309,-0.5296,-0.5308,-0.5308,-0.5326,-0.5328,-0.5334,-0.5354,-0.5355,-0.5346,-0.5347,-0.5347,-0.5348,0,0,0,0,0,0,0,-0.5239,-0.5242,-0.5277,-0.5274,-0.5275,-0.5279,-0.5282,-0.5295,-0.5311,-0.5297,-0.5298,-0.5302,-0.5327,-0.5333,-0.5335,-0.5356,-0.5346,-0.5347,-0.5348,-0.5349,-0.5387,-0.5387,0,0,0,0,0,0,-0.5235,-0.5241,-0.5276,-0.5278,-0.5258,-0.528,-0.5283,-0.5291,-0.5311,-0.5314,-0.5302,-0.5302,-0.5331,-0.5334,-0.5336,-0.5351,-0.5347,-0.5349,-0.5349,-0.5387,-0.5387,-0.5388,0,0,0,0,0,0,-0.5234,-0.5238,-0.5274,-0.526,-0.5264,-0.528,-0.5289,-0.5292,-0.5298,-0.5315,-0.5318,-0.5305,-0.5331,-0.5334,-0.5349,-0.5353,-0.5349,-0.5351,-0.5387,-0.5387,-0.5387,-0.5381,0,0,0,0,0,0,-0.5233,-0.5238,-0.5242,-0.526,-0.5265,-0.5286,-0.5289,-0.5292,-0.53,-0.5301,-0.5319,-0.5322,-0.5331,-0.5347,-0.535,-0.5354,-0.5352,-0.5387,-0.5387,-0.5387,-0.5381,-0.5381,-0.5381,0,0,0,0,0,-0.5231,-0.5238,-0.5242,-0.5246,-0.527,-0.5286,-0.5289,-0.53,-0.5301,-0.5305,-0.5316,-0.5321,-0.5352,-0.5348,-0.5352,-0.5357,-0.5386,-0.5387,-0.5387,-0.5381,-0.5381,-0.5381,0,0,0,0,0,0,-0.522,-0.5241,-0.5245,-0.5258,-0.527,-0.5288,-0.5294,-0.53,-0.5312,-0.5312,-0.5325,-0.5329,-0.5342,-0.5351,-0.5347,-0.5369,-0.5369,-0.5371,-0.5363,-0.5363,-0.5363,-0.5361,-0.5353,0,0,0,0,0,-0.5219,-0.523,-0.5247,-0.5257,-0.5263,-0.5277,-0.5285,-0.5292,-0.5305,-0.5311,-0.5322,-0.5335,-0.5348,-0.5356,-0.5368,-0.5382,-0.5387,-0.5387,-0.5387,-0.5387,-0.5389,-0.5398,-0.5399,-0.5389,-0.5389,-0.5389,0,0,-0.5217,-0.523,-0.5236,-0.5255,-0.5266,-0.5277,-0.5282,-0.5293,-0.5302,-0.5312,-0.5327,-0.5336,-0.5351,-0.5366,-0.5373,-0.5373,-0.5392,-0.5388,-0.5388,-0.5389,-0.5399,-0.54,-0.54,-0.5389,-0.5389,-0.5389,0,0,-0.5219,-0.523,-0.524,-0.525,-0.5266,-0.5276,-0.5279,-0.5296,-0.5303,-0.5318,-0.5326,-0.5337,-0.5358,-0.5369,-0.5377,-0.5386,-0.5392,-0.539,-0.539,-0.5399,-0.54,-0.5401,-0.5405,-0.5406,-0.5391,-0.5391,-0.5391,0,-0.5215,-0.5233,-0.5244,-0.5256,-0.5265,-0.5275,-0.5286,-0.5296,-0.5315,-0.5321,-0.5321,-0.5349,-0.536,-0.5378,-0.538,-0.5386,-0.539,-0.5388,-0.5399,-0.54,-0.5401,-0.5405,-0.5406,-0.539,-0.539,-0.539,-0.539,0,-0.5227,-0.5239,-0.5245,-0.5265,-0.5274,-0.5285,-0.5299,-0.5308,-0.5314,-0.5324,-0.534,-0.5354,-0.537,-0.5375,-0.5381,-0.5394,-0.5394,-0.5396,-0.5397,-0.5401,-0.5406,-0.5407,-0.539,-0.539,-0.539,-0.539,0,0,-0.5222,-0.5249,-0.5251,-0.5261,-0.528,-0.529,-0.5302,-0.5318,-0.5326,-0.5339,-0.535,-0.5368,-0.5371,-0.5381,-0.5389,-0.5397,-0.5404,-0.5399,-0.5399,-0.54,-0.5421,-0.542,-0.5421,-0.5408,-0.5408,-0.5409,-0.542,0,-0.5228,-0.5251,-0.5262,-0.528,-0.5292,-0.5303,-0.5314,-0.5327,-0.5337,-0.5349,-0.536,-0.5373,-0.5375,-0.5382,-0.539,-0.5402,-0.5409,-0.5401,-0.5419,-0.542,-0.5416,-0.5423,-0.5421,-0.5432,-0.5422,-0.5422,-0.5422,0,-0.5238,-0.5252,-0.5271,-0.529,-0.5296,-0.5305,-0.5322,-0.5333,-0.5349,-0.5356,-0.5367,-0.5375,-0.539,-0.5389,-0.5409,-0.5404,-0.5412,-0.5419,-0.542,-0.5423,-0.5422,-0.5427,-0.5435,-0.5437,-0.5425,-0.5425,-0.5424,0,-0.5234,-0.5258,-0.5273,-0.528,-0.5303,-0.531,-0.5319,-0.5335,-0.5345,-0.5359,-0.5366,-0.5382,-0.539,-0.5403,-0.5415,-0.5414,-0.5435,-0.5435,-0.5442,-0.5442,-0.5446,-0.5446,-0.5456,-0.545,-0.545,-0.545,-0.545,0,-0.524,-0.5251,-0.5272,-0.5281,-0.5295,-0.5308,-0.5321,-0.5332,-0.5346,-0.5358,-0.5368,-0.5379,-0.5394,-0.5408,-0.5417,-0.5434,-0.5437,-0.5444,-0.5446,-0.5443,-0.5443,-0.545,-0.545,-0.545,-0.545,-0.545,-0.545,0,-0.5238,-0.5252,-0.5269,-0.529,-0.5295,-0.5304,-0.5322,-0.5332,-0.5343,-0.5358,-0.5362,-0.5379,-0.5396,-0.541,-0.5431,-0.5437,-0.5455,-0.5457,-0.5449,-0.5451,-0.5457,-0.5457,-0.5473,-0.5477,-0.5467,-0.5467,-0.5467,0,-0.5241,-0.525,-0.5272,-0.5281,-0.5291,-0.5305,-0.5316,-0.533,-0.534,-0.536,-0.5367,-0.5384,-0.5399,-0.5425,-0.5439,-0.5456,-0.546,-0.5464,-0.5462,-0.5459,-0.5461,-0.5461,-0.5462,-0.5464,-0.5465,-0.5465,-0.5465,0,-0.5245,-0.5252,-0.5267,-0.5284,-0.5296,-0.531,-0.5325,-0.5331,-0.5348,-0.536,-0.5377,-0.5388,-0.5411,-0.5428,-0.5446,-0.5457,-0.5464,-0.5465,-0.5468,-0.5465,-0.5461,-0.5465,-0.5451,-0.5465,-0.5465,-0.5465,-0.5465,-0.5465,-0.5247,-0.5256,-0.5274,-0.529,-0.5303,-0.5316,-0.5327,-0.534,-0.5355,-0.5374,-0.5382,-0.54,-0.5417,-0.5443,-0.5453,-0.5468,-0.5469,-0.5472,-0.5473,-0.5474,-0.5474,-0.5458,-0.5471,-0.5471,-0.5471,-0.5471,-0.5471,0,-0.5253,-0.5265,-0.528,-0.53,-0.5314,-0.5319,-0.5336,-0.5347,-0.5362,-0.5378,-0.5392,-0.5413,-0.543,-0.5447,-0.5465,-0.5474,-0.5478,-0.5478,-0.5478,-0.5481,-0.5472,-0.5468,-0.5475,-0.5475,-0.5475,-0.5475,-0.5475,-0.5475,-0.5257,-0.5274,-0.5284,-0.5307,-0.532,-0.5338,-0.5347,-0.536,-0.5373,-0.5395,-0.541,-0.5421,-0.5437,-0.5457,-0.5473,-0.5478,-0.5485,-0.5485,-0.549,-0.5482,-0.5481,-0.5481,-0.5477,-0.5486,-0.5486,-0.5498,-0.5498,-0.5498]}]]